Weather Roundup
Issued by NWS Chicago, IL

Home | Current Version | Previous Version | Graphics & Text | Print | Product List | Glossary On
Versions: 1 2 3 4 5 6 7 8 9 10 11 12 13 14 15 16 17 18 19 20 21 22 23 24 25 26 27 28 29 30 31 32 33 34 35 36 37 38 39 40 41 42 43 44 45 46 47 48 49 50
000
NZUS59 KLOT 202110
HRRLOT

CHICAGO AREA WEATHER ROUNDUP
NATIONAL WEATHER SERVICE CHICAGO/ROMEOVILLE IL
300 PM CST SAT DEC 20 2014

NOTE: "FAIR" INDICATES FEW OR NO CLOUDS BELOW 12,000 FEET WITH NO
SIGNIFICANT WEATHER AND/OR OBSTRUCTIONS TO VISIBILITY.

* THESE STATIONS ARE NOT UNDER NWS QUALITY CONTROL. THEY ALSO MAY NOT
  REPORT WEATHER SUCH AS PRECIPITATION OR FOG.

ILZ005-006-012>014-019>023-202200-
NORTHEAST ILLINOIS

CITY           SKY/WX    TMP DP  RH WIND       PRES   REMARKS
OHARE          FLURRIES  33  24  69 S6        30.23S WCI  28
MIDWAY         FLURRIES  34  25  69 SW6       30.24S WCI  29
AURORA         CLOUDY    33  25  72 S7        30.24R HAZE    WCI  27
LANSING*       CLOUDY    33  26  77 SW3       30.25S
JOLIET*        CLOUDY    33  25  75 SW3       30.25R
WAUKEGAN       CLOUDY    32  24  72 SW3       30.23S
DUPAGE AIRPORT CLOUDY    33  24  69 S6        30.23R WCI  28
WHEELING       CLOUDY    33  23  66 S5        30.25S WCI  29
KANKAKEE*      CLOUDY    33  27  76 S5        30.26S WCI  29
MORRIS*        CLOUDY    33  29  83 S5        30.24R WCI  29
LEWIS AIRPORT* CLOUDY    33  25  73 SW5       30.25R WCI  28
NORTHERLY IS     N/A     33  24  70 W2          N/A
$$

WIZ051-052-058>065-066-070>072-202200-
SOUTHEAST WISCONSIN

CITY           SKY/WX    TMP DP  RH WIND       PRES   REMARKS
MILWAUKEE      FLURRIES  31  22  69 W5        30.23S WCI  26
KENOSHA*       CLOUDY    32  24  72 W3        30.23S
RACINE*        CLOUDY    31  24  75 W5        30.25S WCI  26
BURLINGTON     CLOUDY    30  24  78 SW6       30.23R WCI  24
WAUKESHA       CLOUDY    28  23  80 CALM      30.23S
WEST BEND      FLURRIES  30  23  74 S3        30.22R
$$

INZ001>003-010>013-019-020-202200-
NORTHWEST INDIANA

CITY           SKY/WX    TMP DP  RH WIND       PRES   REMARKS
GARY*          CLOUDY    34  23  64 W9        30.26R WCI  26
MICHIGAN CITY* NOT AVBL
RENSSELAER*    NOT AVBL
VALPARAISO     CLOUDY    32  24  72 SW6       30.26R WCI  26
$$

LMZ740>746-202200-
SOUTHERN LAKE MICHIGAN

STATION/POSITION TIME  SKY/WX   TEMP WIND        PRES    VSBY
                                AIR  DIR/SP/G
                 (UTC)          (F)  (DEG/KT/KT) (MB)    (MI)
HARRISON CRIB    2100            33  230/  9/ 11   N/A
BURNHAM HARBOR   2100            33  200/  3/ 10   N/A
CALUMET HARBOR   2100            33  190/  6/ 10 1022.9F
BURNS HARBOR     NOT AVBL
MICHIGAN CITY    NOT AVBL
$$

ABBREVIATIONS USED IN REMARKS
   TC - TEMPERATURE IN CELSIUS
  WCI - WIND CHILL INDEX
   HX - HEAT INDEX
  VSB - VISIBILITY
$$



USA.gov is the U.S. government's official web portal to all federal, state and local government web resources and services.